Regional Weather Roundup
Issued by NWS Huntsville, AL

Home | Current Version | Previous Version | Text Only | Print | Product List | Glossary On
Versions: 1 2 3 4 5 6 7 8 9 10 11 12 13 14 15 16 17 18 19 20 21 22 23 24 25 26 27
000
ASUS44 KHUN 252110
RWRHUN

WEATHER ROUNDUP FOR THE TENNESSEE VALLEY
NATIONAL WEATHER SERVICE HUNTSVILLE AL
400 PM CDT WED MAY 25 2016

ALZ001>004-252200-
NORTHWEST ALABAMA

CITY           SKY/WX    TMP DP  RH WIND       PRES   REMARKS
COURTLAND HCN    N/A     88 N/A N/A S10         N/A
RUSSELLVILLE     N/A     86 N/A N/A MISG        N/A
SHOALS AIRPORT PTSUNNY   88  57  34 S14G23    30.10F
SHOALS TVA RES   N/A     88 N/A N/A MISG        N/A
$$

ALZ005>007-016-252200-
NORTH CENTRAL ALABAMA

CITY           SKY/WX    TMP DP  RH WIND       PRES   REMARKS
CULLMAN AG STN   N/A     86 N/A N/A S7          N/A
DECATUR AP     MOSUNNY   86  58  38 S13       30.12F
HUNTSVILLE AP  PTSUNNY   89  57  33 S13       30.11F
HUN NWS/UAH      N/A     87  56  34 S8          N/A
MERIDIANVILLE  CLOUDY    86  46  25 S14       30.12F
REDSTONE ARSN  MOSUNNY   86  60  40 SW9       30.11F
VINEMONT AP    FAIR      86  56  35 S15       30.16F
$$

ALZ008>010-252200-
NORTHEAST ALABAMA

CITY           SKY/WX    TMP DP  RH WIND       PRES   REMARKS
ALBERTVILLE    MOSUNNY   86  66  51 S8        30.14F
FORT PAYNE     MOSUNNY   84  52  32 S9        30.15F
SCOTTSBORO AP  SUNNY     86  59  39 S9        30.14F
SCOTTSBORO HCN   N/A     84 N/A N/A MISG        N/A
VALLEY HEAD      N/A     84 N/A N/A MISG        N/A
$$

TNZ076-096-097-252200-
SOUTHEASTERN MIDDLE TENNESSEE

CITY           SKY/WX    TMP DP  RH WIND       PRES   REMARKS
TULLAHOMA      SUNNY     82  57  42 S10       30.14F
WINCHESTER     MOSUNNY   86  57  37 S9        30.14F
$$

...SURROUNDING SITES...

CITY           SKY/WX    TMP DP  RH WIND       PRES   REMARKS
ATLANTA        MOSUNNY   86  53  32 S8        30.18F
ANNISTON       SUNNY     88  52  29 SW7       30.15F
BIRMINGHAM     PTSUNNY   89  56  32 S13       30.16F
CHATTANOOGA    PTSUNNY   87  54  32 S9        30.14F
DALTON         PTSUNNY   86  54  32 S7        30.15F
GADSDEN        SUNNY     88  59  37 S7        30.14F
GOLDEN TRNGL   MOSUNNY   88  59  37 S12G18    30.10F
HALEYVILLE     FAIR      85  59  41 S12       30.14F
JACKSON TN     CLOUDY    83  71  67 S10       30.05S
MEMPHIS        TSTM      70  66  87 VRB6      30.10S FOG
NASHVILLE      CLOUDY    83  62  49 S6        30.09F
OXFORD MS      FAIR      84  66  54 S8G16     30.09S
ROME           SUNNY     88  52  29 SW6       30.14F
SAVANNAH       MOSUNNY   86  55  35 S15G23    30.07F
TUPELO         PTSUNNY   86  58  38 S10       30.08F
TUSCALOOSA     MOSUNNY   86  60  41 S12       30.13F
$$

...GULF COAST WEATHER...

CITY           SKY/WX    TMP DP  RH WIND       PRES   REMARKS
GULFPORT       SUNNY     83  67  58 SE15      30.14F
PASCAGOULA     SUNNY     83  65  54 SE9       30.16F
MOBILE         PTSUNNY   84  63  49 S8        30.16F
GULF SHORES    PTCLDY    82  69  66 E6        30.17S
PENSACOLA      MOSUNNY   82  67  60 E8        30.16F
DESTIN         SUNNY     83  74  74 SE8       30.16F
PANAMA CITY    CLOUDY    80  73  80 S12       30.16F
APPALACHICOLA  CLOUDY    83  73  72 SE8       30.17F
$$





USA.gov is the U.S. government's official web portal to all federal, state and local government web resources and services.